RH
4 4 4 4 4 4 4 4 5 5 6 6 7 7 8 9 9 10 11 11 13 15 21 27 32 36 45 53 60 59 63 69 70 64 63 62 66 68 77 77 86 100 100
6 7 7 7 7 7 7 6 6 5 5 5 6 6 8 10 11 11 11 11 12 12 13 13 12 13 19 26 36 45 41 58 73 63 58 58 59 66 68 95 100 100 100
11 9 10 10 11 11 12 12 12 11 9 8 8 8 9 9 10 10 11 12 13 14 14 14 14 14 15 14 15 20 25 28 30 31 36 46 50 61 76 100 100 100 100
25 20 15 11 10 11 11 12 13 13 13 13 13 13 13 13 13 13 14 14 15 16 16 17 17 19 22 24 27 29 31 34 36 44 52 62 75 100 100 100 100 100 100
19 28 36 36 34 28 22 17 15 16 15 15 15 15 15 16 16 17 18 18 20 20 21 21 21 21 22 27 28 33 60 68 67 75 88 86 98 100 100 100 100 100 100
48 40 35 42 55 57 55 59 59 55 52 47 44 36 26 24 22 22 22 21 20 20 20 23 25 30 35 37 62 69 74 66 67 88 92 98 78 86 100 99 100 100 100
54 54 53 51 50 48 49 50 57 50 55 60 62 65 64 62 69 69 73 67 70 71 67 64 67 62 70 67 82 89 98 100 100 92 100 100 100 94 100 100 100 100 100
58 54 51 49 49 50 51 50 49 48 47 49 57 60 60 72 84 82 72 74 69 73 79 93 99 96 98 100 100 100 98 97 100 100 100 100 99 100 98 98 100 100 100
60 57 61 61 56 51 48 49 50 51 51 52 56 59 61 61 62 63 64 66 68 71 71 67 64 68 72 71 76 75 80 86 83 80 98 100 100 100 100 100 100 100 94
69 76 77 74 72 68 66 68 67 66 64 64 62 60 58 58 58 58 57 59 62 63 66 63 62 60 58 57 60 60 58 61 60 58 60 73 92 99 100 91 99 97 98
67 68 68 68 68 73 74 76 76 73 70 71 70 72 79 85 83 81 84 82 76 76 73 68 64 60 58 58 57 57 61 68 65 59 56 57 58 58 62 75 80 83 97
22 38 50 59 61 63 62 64 63 63 65 70 74 77 77 75 73 77 75 71 69 69 71 70 70 71 70 70 69 65 60 59 57 58 59 61 62 59 57 56 56 60 61
18 14 12 13 19 34 39 44 51 51 48 48 51 54 56 56 55 53 54 53 51 50 51 52 51 50 49 47 46 47 49 46 45 43 44 48 51 56 62 74 80 83 82
23 13 12 12 11 9 9 9 10 16 28 38 46 56 58 53 47 43 38 32 35 36 31 32 34 34 34 29 22 18 16 13 13 12 14 15 21 29 35 39 44 51 58
16 14 11 10 9 9 8 7 6 6 7 8 10 12 16 21 21 20 19 17 11 9 9 9 7 6 6 6 6 6 6 7 7 7 8 8 10 13 16 16 15 16 18
11 10 9 9 8 7 6 6 6 6 6 6 6 7 6 7 7 7 6 6 6 6 5 5 5 5 5 6 6 6 6 6 6 8 9 10 9 10 11 12 12 12 16
10 9 8 6 6 5 5 5 5 4 5 5 5 6 6 6 5 5 5 5 5 5 5 5 6 6 6 6 6 6 5 4 3 3 3 4 4 5 5 5 5 5 6
9 8 6 5 5 5 5 5 5 5 5 5 5 5 5 5 5 5 5 5 6 6 5 6 7 7 4 3 3 3 3 4 3 3 3 3 2 2 2 3 3 3 3
8 6 5 5 4 5 5 5 5 6 6 6 6 6 6 6 6 6 5 5 5 7 6 4 3 3 4 4 3 3 2 2 2 2 2 2 2 2 2 2 2 2 2
7 6 5 6 6 6 6 6 7 7 8 8 8 8 8 8 7 6 7 6 4 3 4 4 4 3 3 2 2 2 2 2 2 3 3 2 2 2 2 2 2 3 3
8 6 6 6 6 7 7 7 8 8 9 9 9 8 10 12 11 5 4 3 4 4 4 3 3 2 2 2 3 3 3 3 3 3 2 2 2 2 2 2 3 3 3
8 7 7 7 7 7 8 8 10 10 11 14 15 15 10 5 4 4 4 4 4 3 3 3 3 3 3 3 3 3 4 3 3 3 3 3 3 3 3 3 3 3 3
9 8 8 8 9 9 9 10 14 18 17 17 16 7 4 4 4 5 4 3 3 3 3 3 4 4 4 4 4 4 4 4 4 4 4 4 4 4 4 4 4 4 4
11 10 10 10 11 11 12 13 18 18 20 18 6 5 5 6 6 4 4 4 3 3 3 4 4 4 4 4 4 4 4 4 4 4 3 4 4 4 4 5 5 5 5
12 11 10 11 12 15 15 25 25 23 21 8 6 7 7 6 5 4 4 3 4 4 5 5 5 5 5 6 5 5 4 4 4 3 3 3 3 3 3 4 4 4 5
14 12 11 11 12 20 21 30 30 27 15 8 9 9 8 6 5 4 4 4 4 5 6 6 6 6 6 6 6 5 5 4 4 4 4 4 4 4 4 4 4 4 5
Wind_Speed
19 25 29 33 39 44 47 51 55 61 66 68 70 72 74 76 79 82 86 90 93 98 101 103 108 109 110 111 109 106 106 104 102 102 103 102 101 98 96 88 84 79 78
16 18 22 26 30 35 40 43 47 50 54 58 64 69 73 75 78 81 83 86 89 91 91 93 97 97 98 100 103 106 106 105 106 106 104 101 103 98 88 83 80 78 76
17 18 19 21 24 28 32 35 37 41 45 49 52 56 61 66 71 75 77 81 83 85 86 88 91 91 92 92 92 94 95 96 97 98 95 93 89 88 82 81 80 79 76
17 18 20 23 25 25 27 29 31 33 36 40 43 47 52 56 60 66 69 73 75 77 79 82 83 83 84 85 86 85 84 85 82 80 78 79 80 77 79 81 83 82 82
16 19 20 22 23 25 27 30 31 32 34 36 38 41 44 48 52 55 58 62 64 66 69 71 73 74 73 73 74 73 72 73 74 74 75 76 78 80 81 84 85 84 83
19 18 17 21 25 28 30 31 32 32 34 35 37 39 42 44 47 49 52 55 58 60 62 63 64 64 64 66 68 67 72 72 71 68 72 76 75 76 78 79 83 86 84
26 25 23 23 23 27 30 32 34 36 36 40 42 45 47 45 47 48 50 53 55 57 59 60 60 62 63 65 68 70 74 74 76 72 73 74 77 72 76 81 86 86 85
31 32 32 32 33 33 33 33 34 35 35 36 38 40 43 46 49 51 50 51 54 55 55 56 60 63 64 66 70 73 74 76 78 80 81 84 82 84 84 83 82 86 87
43 42 42 41 41 43 43 43 44 45 45 45 45 45 46 47 49 52 54 55 57 60 63 66 66 69 72 74 75 76 78 80 82 83 88 90 91 94 94 92 91 93 89
51 50 50 50 50 51 50 51 52 52 53 54 54 55 56 58 60 62 63 65 67 69 71 73 74 78 79 80 81 83 83 86 88 89 90 91 95 98 99 99 99 100 101
62 62 61 61 61 61 61 61 61 62 62 62 63 62 62 64 67 69 71 73 75 77 80 81 83 85 87 88 91 93 93 94 96 98 100 100 100 103 103 106 109 107 107
64 68 70 72 74 73 73 73 73 72 71 71 73 75 77 79 79 81 83 85 87 87 89 91 93 95 97 99 101 102 104 105 107 108 110 112 115 114 115 116 117 116 115
61 65 67 69 73 78 81 83 85 85 84 84 84 85 87 89 90 91 94 96 96 96 97 100 103 104 106 107 109 112 116 118 117 116 116 116 117 118 118 121 123 121 118
63 64 66 69 72 74 76 78 81 83 87 90 92 95 96 97 98 99 100 100 99 102 104 105 108 109 110 113 113 112 113 112 112 110 109 109 112 114 117 119 123 128 127
64 66 67 68 70 72 74 76 76 77 79 83 85 86 89 93 95 97 98 98 97 95 94 94 94 94 96 100 102 103 104 106 106 106 105 106 106 106 109 113 114 118 120
68 68 67 67 69 72 72 73 72 72 73 74 76 80 82 84 86 88 89 89 90 93 91 91 92 95 97 98 99 99 99 98 97 95 95 97 98 100 102 104 107 109 109
68 70 69 66 66 66 66 67 70 67 67 67 68 71 73 75 78 81 83 85 88 90 91 91 92 92 91 88 87 88 89 90 88 87 88 89 90 91 91 92 94 96 98
68 67 67 63 59 59 58 59 60 61 64 64 64 65 69 72 75 79 81 83 84 84 83 81 79 80 79 77 78 78 78 79 78 77 77 77 77 77 78 79 80 82 84
68 64 63 61 56 55 56 56 56 57 60 64 67 70 71 75 76 76 76 74 73 73 74 73 71 70 69 69 69 68 67 68 67 66 66 66 66 67 68 69 70 71 72
69 64 60 57 56 56 57 57 57 58 59 61 63 65 68 71 72 71 68 68 66 64 64 64 62 61 60 60 59 59 58 57 57 57 57 57 57 57 58 58 59 59 61
70 66 61 55 53 52 51 51 52 53 55 57 59 61 61 62 64 65 63 61 59 57 56 55 54 53 52 51 50 49 49 48 48 48 48 48 48 48 48 49 49 51 51
67 65 59 55 52 50 48 48 48 50 52 54 55 58 60 60 58 56 55 54 52 50 48 47 46 45 45 44 43 42 41 40 39 38 38 38 38 38 38 39 40 41 43
72 67 61 57 53 49 48 48 48 48 49 52 56 58 58 55 53 52 49 47 45 44 42 40 39 38 37 37 35 33 31 29 28 27 28 28 29 30 30 31 32 34 36
73 70 65 60 56 52 49 48 47 47 52 55 56 54 53 51 50 45 43 41 39 37 35 33 32 32 31 29 27 25 23 21 20 20 21 22 22 23 24 25 27 28 32
74 70 66 61 58 54 49 47 48 52 54 54 52 51 50 47 42 40 38 35 33 31 30 28 28 26 24 22 19 17 15 15 15 15 15 16 17 18 20 22 24 26 28
74 70 67 61 58 53 48 48 51 55 55 52 50 49 46 42 38 36 34 30 29 27 26 25 23 22 19 17 14 12 10 10 9 9 9 10 11 13 15 19 21 24 26
Wind_Direction
260 256 249 248 247 247 249 251 252 250 249 248 247 246 246 248 249 250 251 252 254 256 258 259 259 261 262 262 263 263 263 266 266 266 268 270 270 270 271 268 266 265 267
261 253 255 256 254 254 253 252 251 251 250 248 247 247 249 250 252 253 252 253 255 257 259 260 260 262 263 262 262 263 265 266 266 267 268 268 268 268 264 262 259 261 261
268 261 259 260 260 260 260 259 259 258 257 255 252 251 250 251 252 253 254 255 256 258 258 259 260 262 264 265 265 265 265 265 265 267 266 264 262 261 260 259 260 258 253
279 268 259 257 256 256 258 259 261 260 259 257 256 255 255 254 254 253 254 256 257 258 259 260 261 262 263 263 265 265 265 265 265 264 261 261 260 259 258 257 259 257 256
306 281 275 271 265 264 263 262 261 260 259 258 256 255 254 254 254 253 254 255 256 257 258 259 260 261 262 262 263 263 262 262 262 262 260 259 257 257 256 256 256 256 255
327 319 296 280 273 270 269 267 268 267 266 264 263 261 259 258 257 258 257 256 257 257 258 259 259 258 258 258 258 255 258 261 261 259 258 258 261 258 256 256 255 255 253
304 299 293 292 287 282 275 270 266 266 265 263 263 262 260 260 260 259 259 261 261 261 261 260 259 257 257 256 256 255 252 256 259 258 254 254 258 259 255 255 254 255 257
289 288 286 285 282 279 276 272 270 270 269 267 267 269 266 261 259 261 263 264 264 265 263 261 260 260 257 255 258 258 256 256 254 255 257 255 255 255 259 257 255 260 259
297 294 290 286 284 281 279 277 275 273 271 270 269 268 267 266 264 264 264 264 263 264 265 263 261 259 258 258 258 258 258 257 256 255 255 254 255 256 257 258 257 257 257
289 287 285 282 281 280 280 279 277 275 275 273 271 270 269 268 267 266 266 265 265 263 262 262 263 263 263 264 263 262 261 261 261 260 258 256 255 255 257 257 257 259 259
284 282 280 279 278 278 277 275 274 273 271 270 270 270 269 268 267 267 267 268 268 268 269 270 270 270 270 270 269 269 269 269 268 266 265 264 262 259 257 256 256 257 255
288 282 278 277 276 275 273 271 270 269 268 267 267 267 266 266 265 265 265 265 265 265 266 266 266 266 266 267 267 268 267 266 266 266 266 267 266 263 260 259 259 259 258
295 289 285 281 278 275 273 272 272 271 270 269 268 267 267 267 267 267 268 268 269 268 268 267 267 267 267 267 266 265 265 265 266 265 263 261 261 261 261 261 260 258 256
300 297 292 287 284 282 279 277 275 274 273 272 270 270 269 270 271 272 272 273 273 270 269 270 270 270 269 269 269 269 269 269 268 267 266 264 263 261 259 259 258 257 257
304 300 297 294 291 288 285 282 279 277 274 272 271 272 272 272 272 271 272 273 276 276 275 275 274 274 273 272 272 272 273 272 270 269 268 267 266 263 262 261 261 259 259
309 304 300 297 294 291 289 286 282 279 277 276 275 273 274 274 274 276 277 278 277 275 276 277 276 276 275 274 274 273 272 271 270 269 268 266 264 263 261 260 260 259 257
312 307 304 302 297 293 290 288 286 282 281 281 280 279 277 276 276 276 276 277 279 280 280 280 279 278 277 275 274 274 273 272 271 269 268 267 266 264 262 260 259 258 257
316 311 308 306 301 297 293 290 288 288 288 284 281 279 279 280 280 279 280 281 282 282 282 282 281 281 280 279 277 275 274 273 272 271 269 267 265 264 262 260 258 255 254
321 317 312 308 304 299 295 291 289 288 288 288 289 290 289 288 288 287 287 288 289 289 288 286 285 284 282 280 278 277 275 274 273 271 269 268 266 263 260 258 256 254 251
325 323 317 311 307 302 298 294 292 291 290 290 290 291 293 294 294 294 295 295 294 292 291 290 288 286 284 283 281 280 277 274 272 270 268 266 264 261 259 256 254 252 250
328 325 321 318 314 307 301 298 297 297 297 297 298 298 298 297 299 301 300 298 297 295 293 291 290 289 288 286 283 280 276 274 271 270 269 266 263 260 257 254 251 249 247
330 329 327 325 321 315 310 308 307 306 305 306 306 305 305 307 306 304 304 302 300 299 299 297 294 292 290 288 287 284 280 276 272 269 266 263 261 259 256 252 248 244 240
334 334 333 332 328 322 317 315 313 312 312 313 312 312 312 312 312 311 307 308 308 305 302 299 297 295 294 291 288 284 280 277 274 270 267 264 261 257 253 248 244 239 234
335 336 336 334 331 325 321 319 317 319 320 319 318 318 318 319 316 313 315 313 309 307 305 303 302 301 297 294 291 289 286 282 278 273 269 263 256 249 243 238 232 229 228
334 335 334 333 331 328 323 323 323 324 325 324 324 324 323 320 320 321 318 315 315 314 313 312 309 307 305 302 299 295 293 290 284 276 266 255 246 238 231 227 223 218 217
333 334 333 332 331 327 326 326 327 328 329 330 329 328 326 325 328 326 324 324 324 323 321 319 316 315 314 313 312 305 296 286 277 266 253 241 234 228 220 214 213 210 207